METEOR 2-8 DEB

Satellite information

Favourite Embed

Satellite Type and Status

DEBRISIN ORBIT

Key statistics

Satellite METEOR 2-8 DEB at a glance.

Uptime

15871

Days in orbit

Revolutions

≈ 14.2

Per day

Orbit

LEO

Low Earth Orbit

Inclination

82.5

Latest

Satellite identification and parameters

Extended collection of information and parameters for METEOR 2-8 DEB.

Object identification

Identified? True

Debris? True

Object name: METEOR 2-8 DEB

International designator: 1982-025N

Object number (NORAD): 36328

Object ID (CCSDS): 36328

Country: COMMONWEALTH OF INDEPENDENT STATES (CIS)

Current information (Y/N): Y

RCS size: SMALL

Orbital parameters

Period: 101.592 minutes

Inclination: 82.5176 deg

SMA: 7212.156 km

Apoapsis: 848.097 km

Periapsis: 819.946 km

RAAN: 123.2396 deg

Eccentricy: 0.00195164

Argument of periapsis: 46.6115 deg

Mean anomaly: 313.6685 deg

Mean motion: 14.17441281 rev/day

Mean motion (dot): 0.00004507 rev/day2

B* drag term: 0.0022131918 1/REarth

Two-line elements (TLE)

Creation date: Sept. 5, 2025, 4:46 a.m.

Reference frame: TEME

Reference center: EARTH

Epoch: Sept. 4, 2025, 8:54 a.m. UTC

TLE line 0: 0 METEOR 2-8 DEB

TLE line 1: 1 36328U 82025N 25247.37148546 .00004507 00000-0 22132-2 0 9995

TLE line 2: 2 36328 82.5176 123.2396 0019516 46.6115 313.6685 14.17441281627723

Live tracking on map

Real-time ground track for satellite METEOR 2-8 DEB.

In-orbit conjunctions

A list of the most updated potential collisions computed for object METEOR 2-8 DEB.

Target Orbit TCA Probability of collision Miss distance Type
FENGYUN 1C DEB SSO 2025-09-08 01:16:45 0.0001228486 57.0 (m) DEBRIS
CZ-6A DEB LEO 2024-10-28 07:14:33 0.0001939763 582.0 (m) DEBRIS
FENGYUN 1C DEB SSO 2024-09-02 18:31:57 0.0002953848 149.0 (m) DEBRIS

Associated space launch

Second generation soviet meteorological satellite

METEOR 2-8 DEB was lifted into orbit during the mission ‘Tsiklon-3 | Meteor-2 8’, on board a Tsiklon-3 space rocket.

The launch took place on March 25, 1982, 9:50 a.m. from 32/1.

For more information about the launch, click the button.

Launch to space Tsiklon-3 | Meteor-2 8
Tsiklon-3 | Meteor-2 8

Agency: N/A

Status: Launch Successful

Launch date: March 25, 1982, 9:50 a.m. UTC

Rocket: Tsiklon-3

Launch pad: 32/1

Location: Plesetsk Cosmodrome, Russian Federation

...

Latest news about this satellite

There are no fresh news available about this satellite. Check back as we update our databases every day.


Newsletter sign-up

Weekly statistics, charts and insights to help you stay on top of the space industry.